Regional Weather Roundup
Issued by NWS Little Rock, AR

Home | Current Version | Previous Version | Graphics & Text | Print | Product List | Glossary On
Versions: 1 2 3 4 5 6 7 8 9 10 11 12 13 14 15 16 17 18 19 20 21 22 23 24 25 26 27
000
ASUS44 KLZK 152205
RWRLZK

WEATHER ROUNDUP FOR ARKANSAS
NATIONAL WEATHER SERVICE LITTLE ROCK AR
500 PM CDT TUE APR 15 2014

NOTE: "FAIR" INDICATES FEW OR NO CLOUDS BELOW 12,000 FEET WITH NO
SIGNIFICANT WEATHER AND/OR OBSTRUCTIONS TO VISIBILITY.

ARZ001-003-010-029-152300-
NORTHWEST ARKANSAS

CITY           SKY/WX    TMP DP  RH WIND       PRES   REMARKS
FAYETTEVILLE   SUNNY     56  23  27 N8        30.13F
FORT SMITH     SUNNY     61  25  25 S6        30.14F
HARRISON       SUNNY     54  20  26 VRB3      30.14F
BENTONVILLE    SUNNY     55  27  33 NW5G16    30.14F
ROGERS         SUNNY     56  23  27 W8        30.13F
SILOAM SPGS    SUNNY     57  25  28 CALM      30.14F
HIGHFILL       SUNNY     56  23  27 CALM      30.13F
SPRINGDALE     SUNNY     55  23  28 W6        30.15F
$$

ARZ004-005-016-152300-
NORTH CENTRAL ARKANSAS

CITY           SKY/WX    TMP DP  RH WIND       PRES   REMARKS
BATESVILLE     SUNNY     55  25  30 N7        30.16F
FLIPPIN        SUNNY     55  21  26 NE5       30.15F
MTN HOME       SUNNY     53  18  25 W5        30.14F
$$

ARZ040-041-152300-
WEST CENTRAL ARKANSAS

CITY           SKY/WX    TMP DP  RH WIND       PRES   REMARKS
MENA           SUNNY     61  21  21 NW7       30.13F
MOUNT IDA      SUNNY     58  22  24 VRB6      30.12F
$$

ARZ009-017-025-026-028-152300-
NORTHEAST ARKANSAS

CITY           SKY/WX    TMP DP  RH WIND       PRES   REMARKS
CORNING          N/A     54  19  26 SE3       30.18F
JONESBORO      SUNNY     51  22  31 NE10      30.19F
NEWPORT        SUNNY     52  23  32 VRB3      30.19F
BLYTHEVILLE    SUNNY     50  24  36 NE10      30.20F
$$

ARZ022-023-033-042-044-152300-
CENTRAL ARKANSAS

CITY           SKY/WX    TMP DP  RH WIND       PRES   REMARKS
LITTLE ROCK    MOSUNNY   57  24  28 E5        30.18F
N LITTLE ROCK  MOSUNNY   55  30  38 SW3       30.18F
JACKSONVILLE   SUNNY     57  25  28 VRB1      30.16F
SEARCY         SUNNY     55  25  31 VRB3      30.18F
HOT SPRINGS    SUNNY     59  21  23 VRB3      30.15F
RUSSELLVILLE   SUNNY     59  26  28 VRB5      30.14F
CLINTON        FAIR      57  23  26 NE5       30.15F
$$

ARZ036-152300-
EAST ARKANSAS

CITY           SKY/WX    TMP DP  RH WIND       PRES   REMARKS
WEST MEMPHIS   SUNNY     50  28  42 NE12      30.20F
$$

ARZ050-053-066-070-073-152300-
SOUTHWEST ARKANSAS

CITY           SKY/WX    TMP DP  RH WIND       PRES   REMARKS
ARKADELPHIA    FAIR      60  26  27 N8        30.16F
CAMDEN         SUNNY     59  25  27 MISG      30.18F
TEXARKANA      SUNNY     59  26  28 VRB6      30.16F
EL DORADO      SUNNY     58  29  33 NW7       30.17F
DE QUEEN       SUNNY     62  23  22 CALM      30.12F
$$

ARZ056-057-069-152300-
SOUTHEAST ARKANSAS

CITY           SKY/WX    TMP DP  RH WIND       PRES   REMARKS
PINE BLUFF     SUNNY     53  32  44 N6        30.19F
STUTTGART      MOSUNNY   54  30  40 N6        30.20F
MONTICELLO     SUNNY     54  28  36 VRB6      30.18F

$$





USA.gov is the U.S. government's official web portal to all federal, state and local government web resources and services.